Location: Brno
(49.2000°N, 16.6330°E)
Time: 20:49:05
(UTC+02:00)

Daily predictions for brighter satellites

Satellite Brightness Start Highest point End
(mag) Time Altitude Azimuth Time Altitude Azimuth Time Altitude Azimuth
MetOp-A 4.4 21:12:25 10° SSE 21:17:40 59° ENE 21:22:57 10° N
Cosmos 2237 Rocket 3.0 21:15:09 10° SW 21:20:42 59° WNW 21:26:18 10° NNE
Atlas Centaur 2 4.5 21:18:25 10° S 21:22:02 14° SSE 21:25:46 10° SE
SL-24 R/B - RUBIN 2 4.3 21:17:06 10° SSW 21:22:39 79° SE 21:28:57 10° NE
Cosmos 2278 Rocket 4.2 21:19:10 10° NW 21:23:43 25° WSW 21:28:15 10° SSW
Meteor 1-15 Rocket 4.3 21:18:32 10° NNW 21:24:08 83° W 21:29:46 10° S
H-2A R/B 3.0 21:22:50 10° S 21:26:56 48° W 21:31:11 10° NNW
PSLV R/B 3.3 21:28:19 10° S 21:31:24 77° WSW 21:34:32 10° NNW
COSMOS 2455 3.8 21:27:21 10° SSE 21:32:12 26° ESE 21:37:05 10° NE
Nimbus 7 Rocket 4.4 21:27:16 10° NNE 21:33:18 78° ESE 21:39:13 10° SSW
YAOGAN 6 2.9 21:32:49 10° SSE 21:36:28 56° ENE 21:40:09 10° N
Cosmos 1626 Rocket 3.7 21:32:08 10° S 21:36:30 61° E 21:40:53 10° NNE
Cosmos 2369 Rocket 2.9 21:33:16 10° NNW 21:38:43 44° NE 21:44:05 10° SE
ATLAS CENTAUR R/B 2.5 21:34:48 10° SW 21:39:46 61° NW 21:44:47 10° NE
Cosmos 1992 Rocket 4.4 21:35:01 10° NNW 21:40:09 51° ENE 21:45:06 11° SE
CZ-2C R/B 3.7 21:40:44 10° WSW 21:41:21 11° W 21:41:57 10° WNW
H-2A R/B 3.2 21:37:06 10° ESE 21:41:21 29° ENE 21:45:42 10° N
Cosmos 2219 Rocket 4.3 21:36:52 10° WSW 21:41:55 32° NW 21:46:58 10° NNE
Cosmos 494 Rocket 4.1 21:36:53 10° SSW 21:42:00 83° WNW 21:47:10 10° NNE
Tsikada Rocket 4.1 21:38:20 10° S 21:44:41 69° E 21:51:02 10° NNE
SL-16 R/B 2.5 21:41:49 10° SW 21:47:28 75° WNW 21:53:10 10° NNE
Cosmos 2228 4.0 21:43:24 10° NNW 21:47:40 48° W 21:51:54 10° SSW
ARGOS 3.3 21:43:29 10° SSE 21:48:50 64° ENE 21:54:13 10° N
Abrixas rocket 4.2 21:46:41 10° W 21:49:15 20° SSW 21:51:42 10° SSE
SPOT 1/Viking Rocket 3.6 21:44:30 10° SSE 21:49:40 78° ENE 21:54:51 10° NNW
NOAA 11 4.3 21:50:13 10° SSE 21:55:30 66° ENE 22:00:53 10° N
SPOT 5 3.4 21:51:20 10° S 21:55:38 49° W 21:59:53 10° NNW
CZ-4C R/B 3.9 21:52:07 12° SE 21:55:53 50° ENE 21:59:52 10° N
DELTA 2 DEB (DPAF) 4.3 21:58:22 13° SSE 22:02:17 61° ENE 22:06:45 10° N
UNK 4.2 22:00:45 10° NNE 22:06:07 89° WNW 22:11:42 10° SSW
SAR-Lupe-2 4.3 22:04:35 16° SE 22:07:08 39° ENE 22:10:31 10° N
Aureole 2 Rocket 3.1 22:03:23 10° SW 22:07:14 61° WNW 22:10:44 10° NNE
Landsat 7 4.0 22:04:32 14° SSE 22:08:31 59° ENE 22:13:13 10° N
Lacrosse 5 3.3 22:05:03 10° W 22:09:51 41° NNW 22:14:40 10° NE
Cosmos 1953 4.1 22:09:23 10° NNE 22:12:21 20° ENE 22:14:43 13° ESE
IGS 5A 4.2 22:10:49 16° SE 22:13:46 40° ENE 22:17:40 10° N
Cosmos-2242 4.4 22:11:00 10° NNE 22:14:45 27° ENE 22:17:33 15° ESE
Cosmos 1238 4.2 22:11:51 10° S 22:15:01 84° W 22:18:03 10° N
Cosmos 1066 Rocket 4.5 22:09:59 11° S 22:15:18 53° E 22:20:56 10° NNE
Lacrosse 5 rocket 2.0 22:12:10 10° WSW 22:16:04 57° NNW 22:20:13 10° NE
Cosmos 1603 3.6 22:10:35 10° SSW 22:16:11 79° ESE 22:21:49 10° NNE
SeaSat 1 4.0 22:12:06 10° SSW 22:16:19 28° WSW 22:20:34 10° NW
CZ-4B R/B 3.6 22:11:20 10° NNE 22:16:23 85° WNW 22:21:33 10° SSW
ATLAS 3B R/B 3.6 22:09:59 10° S 22:16:34 32° ESE 22:23:03 10° NE
SL-8 R/B 3.7 22:17:51 10° W 22:22:42 82° S 22:27:34 10° E
Cosmos 1634 Rocket 4.0 22:17:30 10° N 22:23:44 88° E 22:29:08 14° S
Terra 2.0 22:20:48 17° SE 22:24:19 59° ENE 22:29:01 10° N
USA 234 4.1 22:21:14 14° SSE 22:26:28 38° SW 22:32:32 10° WNW
SL-08 RB Rocket 3.8 22:22:41 14° S 22:26:33 73° WSW 22:31:07 10° NNW
Cosmos 1758 Rocket 4.1 22:24:36 19° SSE 22:27:26 42° E 22:31:34 10° NNE
Lacrosse 4 Rocket 2.7 22:29:53 20° SE 22:30:45 21° ESE 22:33:52 10° ENE
CARTOSAT-1 3.6 22:29:03 20° SSE 22:32:01 71° ENE 22:36:21 10° N
Cosmos 1943 3.3 22:36:43 11° S 22:42:06 56° ESE 22:47:40 10° NE
Cosmos 1515 4.3 22:38:58 10° SSW 22:42:47 57° WNW 22:46:37 10° N
Cosmos 1346 Rocket 2.7 22:40:58 21° S 22:43:26 67° E 22:47:21 10° NNE
BREEZE-M DEB (TANK) 2.4 22:41:59 10° SW 22:43:57 33° SSW 22:43:57 33° SSW
Cosmos 1825 Rocket 3.7 22:42:03 13° SSW 22:46:05 77° W 22:50:32 10° N
Cosmos 2279 Rocket 4.0 22:43:32 10° N 22:49:49 83° E 22:54:19 20° SSE
Cosmos 407 Rocket 3.7 22:46:48 19° S 22:50:23 51° ESE 22:55:27 10° NNE
Cosmos 1943 Rocket 2.4 22:47:01 10° NNW 22:52:32 62° ENE 22:56:10 22° SE
Cosmos 1758 3.8 22:52:34 10° N 22:56:36 51° ENE 22:58:29 28° SE
Cosmos 1842 3.4 23:01:33 31° SSE 23:03:13 57° E 23:07:05 10° NNE
Cosmos 2180 Rocket 4.5 22:58:37 10° N 23:04:54 90° E 23:09:08 23° S
Cosmos 1954 Rocket 4.5 23:06:14 26° SSE 23:08:48 44° ESE 23:13:50 10° NE
Atlas Centaur 2 4.2 23:04:37 10° SW 23:10:13 20° S 23:10:13 20° S
Cosmos 1656 Rocket 4.4 23:06:46 10° NNW 23:12:18 47° NE 23:16:05 19° ESE
SL-27 R/B 3.4 23:14:41 28° ESE 23:14:42 28° ESE 23:17:39 10° NE
COSMOS 2455 3.2 23:11:42 10° SW 23:17:40 68° NW 23:23:42 10° NNE
Cosmos 1766 4.0 23:14:26 10° NNW 23:18:16 47° W 23:20:19 24° SSW
Cosmos 1544 3.9 23:16:39 10° N 23:20:15 41° ENE 23:21:24 32° ESE
H-2A R/B 2.8 23:17:27 19° SSW 23:20:36 43° W 23:25:27 10° NNW
Cosmos 2369 Rocket 3.2 23:17:31 10° NW 23:22:40 37° WSW 23:25:57 20° SSW
DMSP B5D2-2 4.4 23:27:43 10° N 23:32:58 65° WNW 23:37:03 17° SSW
Cosmos 1570 Rocket 4.0 23:27:50 10° NNW 23:33:14 84° ENE 23:35:52 31° SSE
CZ-4C R/B 3.8 23:32:50 32° E 23:33:30 36° ENE 23:36:30 10° N
CZ-4B R/B 2.9 23:35:25 24° ESE 23:36:34 30° ENE 23:39:50 10° N
Cosmos 1733 4.1 23:34:02 10° N 23:37:43 39° ENE 23:38:50 31° ESE
Cosmos 1850 Rocket 4.5 23:41:12 32° SSE 23:43:01 44° ESE 23:47:58 10° NE
COSMOS 2406 3.5 23:44:35 32° SSE 23:46:55 50° ESE 23:52:27 10° NE
Cosmos 1470 2.8 23:44:32 10° N 23:48:27 68° E 23:49:27 46° SE
Cosmos 1953 3.2 23:45:16 10° NNW 23:49:02 41° W 23:50:29 29° SW
Cosmos 2084 3.4 23:45:21 10° NW 23:49:26 68° SW 23:50:38 44° SSE
Cosmos 2221 3.2 23:45:17 10° N 23:49:26 42° ENE 23:50:55 31° ESE
Okean 3 Rocket 4.0 23:49:54 37° SE 23:51:06 47° E 23:55:22 10° NNE
Cosmos-2242 4.2 23:48:25 10° NNW 23:52:25 35° W 23:54:26 23° SW
ISS -3.0 23:53:26 51° E 23:53:26 51° E 23:56:05 10° ENE
H-2A R/B 3.0 23:49:18 10° NNE 23:52:54 35° E 23:53:22 34° ESE
Lacrosse 5 3.5 23:49:07 10° WNW 23:53:46 35° N 23:58:24 10° ENE
Cosmos 1805 4.1 23:51:08 10° NNW 23:54:53 42° W 23:56:10 31° SW
Lacrosse 5 rocket 3.5 23:52:24 10° WNW 23:56:01 29° N 23:59:47 10° NE
